Hourly Data Report for October 01, 2017

All times are specified in Local Standard Time (LST). Add 1 hour to adjust for Daylight Saving Time where and when it is observed.

CHURCHILL
MANITOBA

58°44'21.000" N
94°03'59.000" W
29.30 m
5060595
71618
YYQ

Download Data

Hourly Data (October 2017)
Hourly Data Report for October 1, 2017
Temp Definition
°C
Dew Point Temp Definition
°C
Rel Hum Definition
%
Wind Dir Definition
10's deg

Wind Spd Definition
km/h
Visibility Definition
km
Stn Press Definition
kPa
Hmdx Definition


Wind Chill Definition


Weather Definition


TIME
00:00 Legend Double Dagger 4.9 2.3 83 12 30 16.1 101.29     LegendNANA
01:00 Legend Double Dagger 5.1 2.5 83 12 26 16.1 101.26     LegendNANA
02:00 Legend Double Dagger 5.3 2.7 83 12 32 16.1 101.25     LegendNANA
03:00 Legend Double Dagger 5.4 2.8 83 12 30 16.1 101.25     LegendNANA
04:00 Legend Double Dagger 5.4 2.8 83 12 34 16.1 101.24     LegendNANA
05:00 Legend Double Dagger 5.5 2.7 82 13 34 16.1 101.24     LegendNANA
06:00 Legend Double Dagger 5.6 3.0 83 13 34 16.1 101.27     LegendNANA
07:00 Legend Double Dagger 5.7 3.1 83 13 35 16.1 101.27     LegendNANA
08:00 Legend Double Dagger 6.0 3.2 82 13 39 16.1 101.26     LegendNANA
09:00 Legend Double Dagger 6.6 3.4 80 12 45 16.1 101.18     LegendNANA
10:00 Legend Double Dagger 7.0 3.4 78 13 48 16.1 101.17     LegendNANA
11:00 Legend Double Dagger 7.3 4.1 80 13 48 16.1 101.16     LegendNANA
12:00 Legend Double Dagger 7.7 4.5 80 13 46 16.1 101.13     LegendNANA
13:00 Legend Double Dagger 8.0 4.8 80 14 41 16.1 101.10     LegendNANA
14:00 Legend Double Dagger 8.9 5.2 77 14 34 16.1 101.05     LegendNANA
15:00 Legend Double Dagger 9.0 5.2 77 13 37 16.1 101.01     LegendNANA
16:00 Legend Double Dagger 8.9 5.3 78 14 34 16.1 100.99     LegendNANA
17:00 Legend Double Dagger 7.7 5.0 83 13 35 16.1 100.97     LegendNANA
18:00 Legend Double Dagger 7.2 5.0 86 13 28 16.1 100.93     LegendNANA
19:00 Legend Double Dagger 7.3 5.0 85 13 32 16.1 100.92     LegendNANA
20:00 Legend Double Dagger 7.5 5.2 85 13 34 16.1 100.86     LegendNANA
21:00 Legend Double Dagger 7.6 5.3 85 14 32 16.1 100.84     LegendNANA
22:00 Legend Double Dagger 7.8 5.5 85 14 28 16.1 100.79     LegendNANA
23:00 Legend Double Dagger 7.9 5.2 83 14 30 16.1 100.74     LegendNANA

Notes on Data Quality.

Legend

  • E = Estimated
  • M = Missing
  • NA = Not Available
  • ‡ = Partner data that is not subject to review by the National Climate Archives
Date modified: